Location: Aydie
(43.5695°N, 0.1043°W)
Time: 04:33:15
(UTC+00:00)

Cosmos 304 Rocket - Pass Details

Date: 17 November 2025
Orbit: 668 x 677 km, 74.0° (Epoch: 04 December)

Event Time Altitude Azimuth Distance (km) Brightness Sun altitude
Rises 18:05:00 0° 184° (S) 2,998 7.3 -16.5°
Reaches altitude 10° 18:07:20 10° 179° (S) 2,091 6.4 -16.9°
Maximum altitude 18:11:51 50° 105° (ESE) 860 3.9 -17.8°
Enters shadow 18:13:50 30° 47° (NE) 1,202 4.6 -18.1°
